GW5789 Weather Reports


time (UTC)temp
C
wind
direction
speed
KPH
gust
KPH
rain 1hr
cm
rain 24hr
cm
rain mn
cm
humidity
%
barometer
mb
20260506224517 17 295 4.8 19.3 0.00 0.00 0.00 76 1012.7
20260506223020 17 333 8.0 20.9 0.00 0.00 0.00 77 1012.5
20260506221505 18 284 6.4 17.7 0.00 0.00 0.00 75 1012.2
20260506220007 19 343 3.2 17.7 0.00 0.00 0.00 73 1012.5
20260506214514 19 319 6.4 22.5 0.00 0.00 0.00 74 1012.5
20260506213019 20 194 6.4 19.3 0.00 0.00 0.00 73 1012.4
20260506211504 21 247 4.8 20.9 0.00 0.00 0.00 71 1012.2
20260506210010 21 331 8.0 20.9 0.00 0.00 0.00 71 1012.2
20260506204512 21 319 9.7 22.5 0.00 0.00 0.00 72 1012.0
20260506203018 21 302 6.4 20.9 0.00 0.00 0.00 74 1012.6
20260506201538 22 259 4.8 19.3 0.00 0.00 0.00 71 1012.8
20260506200009 23 196 6.4 19.3 0.00 0.00 0.00 74 1012.3
20260506194508 23 115 6.4 16.1 0.00 0.00 0.00 73 1011.9
20260506193016 24 296 8.0 24.1 0.00 0.00 0.00 72 1011.7
20260506191520 26 298 4.8 16.1 0.00 0.00 0.00 73 1011.8
20260506190026 25 319 1.6 11.3 0.00 0.00 0.00 74 1012.0
20260506184507 25 300 4.8 12.9 0.00 0.00 0.00 76 1011.9
20260506183014 24 351 3.2 12.9 0.00 0.00 0.00 76 1011.8
20260506181518 23 345 4.8 12.9 0.00 0.00 0.00 75 1012.2
20260506180024 23 34 3.2 12.9 0.00 0.00 0.00 79 1012.0
20260506174525 22 21 6.4 14.5 0.00 0.00 0.00 80 1012.2
20260506173013 21 348 6.4 12.9 0.00 0.00 0.00 81 1012.1
20260506171517 20 319 4.8 12.9 0.00 0.00 0.00 80 1012.4
20260506170021 20 352 8.0 17.7 0.00 0.00 0.00 85 1012.4
20260506164525 19 308 6.4 17.7 0.00 0.00 0.00 88 1012.6
20260506163019 18 330 6.4 16.1 0.00 0.00 0.00 88 1013.1
20260506161517 19 330 6.4 20.9 0.00 0.00 0.00 87 1013.3
20260506160023 22 241 6.4 17.7 0.00 0.00 0.00 87 1013.0
20260506154536 23 326 1.6 4.8 0.00 0.00 0.00 88 1012.7
20260506153009 23 334 3.2 4.8 0.00 0.00 0.00 87 1012.5
20260506151514 24 347 0.0 4.8 0.00 0.00 0.00 87 1012.0
20260506150020 24 71 0.0 6.4 0.00 0.00 0.00 87 1011.6
20260506144522 24 53 1.6 3.2 0.00 0.00 0.00 87 1011.3
20260506143013 24 98 3.2 6.4 0.00 0.00 0.00 87 1011.0
20260506141511 23 16 1.6 4.8 0.00 0.00 0.00 89 1010.8
20260506140022 23 44 0.0 3.2 0.00 0.00 0.00 89 1011.3
20260506134520 23 84 0.0 6.4 0.00 0.00 0.00 90 1010.2
20260506133026 23 76 3.2 6.4 0.00 0.00 0.00 91 1010.2
20260506131508 23 10 1.6 8.0 0.00 0.00 0.00 92 1010.3
20260506130016 22 66 1.6 9.7 0.00 0.00 0.00 92 1010.1
20260506124519 22 31 1.6 8.0 0.00 0.00 0.00 92 1009.9
20260506123024 22 46 0.0 4.8 0.00 0.00 0.00 92 1009.9
20260506121528 22 42 0.0 3.2 0.00 0.00 0.00 92 1010.1
20260506120014 22 42 1.6 3.2 0.00 0.00 0.00 92 1010.0
20260506114518 22 26 0.0 3.2 0.00 0.00 0.00 91 1009.9
20260506113025 23 26 0.0 3.2 0.00 0.00 0.00 90 1009.9
20260506111528 23 37 0.0 3.2 0.00 0.00 0.00 90 1009.9
20260506110027 23 78 0.0 3.2 0.00 0.00 0.00 89 1009.7
20260506104515 23 78 1.6 9.7 0.00 0.00 0.00 89 1009.5
20260506103022 23 103 3.2 11.3 0.00 0.00 0.00 89 1009.3
20260506101503 23 87 4.8 9.7 0.00 0.00 0.00 89 1009.1
20260506100011 23 65 4.8 11.3 0.00 0.00 0.00 89 1009.1
20260506094513 23 123 3.2 9.7 0.00 0.00 0.00 89 1009.0
20260506093033 23 96 3.2 12.9 0.00 0.00 0.00 89 1008.7
20260506091505 23 109 4.8 14.5 0.00 0.00 0.00 88 1008.7
20260506090009 23 127 6.4 16.1 0.00 0.00 0.00 88 1008.5
20260506084516 23 109 4.8 9.7 0.00 0.00 0.00 89 1008.6
20260506083019 23 95 4.8 12.9 0.00 0.00 0.00 89 1008.6
20260506081524 23 21 6.4 17.7 0.00 0.00 0.00 89 1008.6
20260506073016 23 72 6.4 14.5 0.00 0.00 0.00 88 1009.0
20260506071519 23 110 4.8 20.9 0.00 0.00 0.00 88 1009.2
20260506061518 23 103 6.4 30.6 0.00 0.00 0.00 87 1009.2
20260506044527 24 98 8.0 22.5 0.00 0.00 0.00 86 1009.3
20260506043008 24 88 3.2 11.3 0.00 0.00 0.00 86 1009.4
20260506041514 24 55 4.8 14.5 0.00 0.00 0.00 86 1009.1
20260506040021 24 80 4.8 12.9 0.00 0.00 0.00 86 1009.0
20260506034524 24 82 3.2 12.9 0.00 0.00 0.00 85 1008.8
20260506033025 24 65 1.6 9.7 0.00 0.00 0.00 85 1008.7
20260506031514 24 54 3.2 12.9 0.00 0.00 0.00 85 1008.5
20260506030018 24 88 1.6 9.7 0.00 0.00 0.00 84 1008.2
20260506024525 24 11 1.6 11.3 0.00 0.00 0.00 83 1008.2
20260506023024 25 126 3.2 9.7 0.00 0.00 0.00 82 1007.8
20260506021526 25 92 3.2 9.7 0.00 0.00 0.00 82 1007.6
20260506020030 25 43 1.6 6.4 0.00 0.00 0.00 81 1007.1
20260506014520 25 63 1.6 6.4 0.00 0.00 0.00 81 1007.1
20260506013024 25 49 1.6 4.8 0.00 0.00 0.00 80 1007.0
20260506011508 25 63 1.6 4.8 0.00 0.00 0.00 80 1007.1
20260506010017 26 65 0.0 3.2 0.00 0.00 0.00 78 1007.2
20260506004524 26 81 0.0 3.2 0.00 0.00 0.00 76 1007.1
20260506003004 27 98 1.6 6.4 0.00 0.00 0.00 74 1007.0
20260506001504 27 92 0.0 4.8 0.00 0.00 0.00 73 1007.0
20260506000012 27 80 3.2 11.3 0.00 0.00 0.00 72 1006.8
20260505234516 27 89 3.2 14.5 0.00 0.00 0.00 70 1006.7
20260505233004 27 104 6.4 14.5 0.00 0.00 0.00 71 1006.6
20260505231507 27 57 4.8 19.3 0.00 0.00 0.00 70 1006.6
20260505230016 28 119 4.8 16.1 0.00 0.00 0.00 69 1006.4